Showing default

SHIYAN 12 01 (SY-12 01), 50321

Orbit data source: Space-Track

SHIYAN 12 01 (SY-12 01), 50321 is a payload satellite owned by CAST (CN) in GEO that was launched on Thu, 23 Dec 2021 UTC via a CHANG ZHENG 7A launch vehicle from the Wenchang Satellite Launch Center (WSC). Payload-class satellites include a variety of spacecraft equipped with specific instruments for various scientific and technological missions. These include communications satellites like Starlink; space stations such as the ISS; scientific satellites like the Hubble; Earth observation satellites from companies like Planet Labs, Umbra, and HawkEye 360; GPS; miniature CubeSats for education and research; and military/defense satellites.

Not visible in the next 10 days
Identifier
50321, 2021-129A
Orbit
GEO
Country
Flag of CNCN / PRC
Related business
Manufacturer
CAST
Mission
Operational Defense Technology
Bus & Motor
XYZ, Unknown motor
Mass
~3,000 kg wet, ~2,000 kg dry
Launch date (UTC)
2021-12-23 (4 years ago)
Launch vehicle
CHANG ZHENG 7A
Launch site
Wenchang Satellite Launch Center (WSC)
Object type
Payload
Rocket body
Debris
Shape & HBR
Box + 2 Pan, 4.5 m
Radar Cross Section
24.336 m², Large (>1 m²)

Expand to show TLE details & history
Last TLE update: 1 day ago

TLE from 1 day ago
0 SHIYAN 12 01 (SY-12 01)
1 50321U 21129A   26093.71193987 -.00000356  00000-0  00000+0 0  9995
2 50321   3.4828  80.9059 0003410 263.7414 222.3716  1.00080844 15750
Epoch: 2026-04-03T17:05Z
TLE epoch observation values (Epoch: 2026-04-03T17:05:11.604Z)
Latitude
2.81194°
Longitude
118.70937°
Altitude
35,850.095 km
Speed
3.072 km/s
True Right ascension
13h 48m 11s
True Declination
2° 48' 33"
Sunlit
Object was in daylight at epoch
Visualization orbit readout
Latitude
Unknown
Longitude
Unknown
Altitude
Unknown
Speed
Unknown
Apparent Right ascension
Unknown
Apparent Declination
Unknown
Sunlit
N/A
Visualization observer readout
Local Sidereal Time
06:20:06
Azimuth
Unknown
Elevation
Unknown
Doppler factor
Unknown
Orbital elements
Apogee altitude
35,855.668 km
Perigee altitude
35,826.874 km
Semi-major axis
42,219.408 km
Eccentricity
0.00034
Inclination
3.4828°
RAAN
80.9059°
Arg. of periapsis
263.7414°
True anomaly
222.34527°
Mean anomaly
222.3716°
Eccentric anomaly
222.35844°
Mean motion
0.25019 °/min
Orbital period
1,438.89 mins
BSTAR
0
Loading maneuver chart data...
Computing Atmospheric mass density...
Loading historical data...
Loading historical data...
Loading historical data...
Loading historical data...
Loading historical data...
Loading historical data...
Loading historical data...
Other satellites on launch #129 in the year 2021 (2021-12-23 UTC)

Documentation

Showing up to 5 results
|